Weather History for Prague, Czech Republic

Change the Weather History Date:

Wednesday, February 6, 2013

  Actual Average Record
Temperature  
Mean Temperature 31 °F -  
Max Temperature 38 °F 39 °F 57 °F (2000)
Min Temperature 24 °F 25 °F -2 °F (2012)
Degree Days  
Heating Degree Days 34    
Moisture  
Dew Point 24 °F    
Average Humidity 72    
Maximum Humidity 87    
Minimum Humidity 47    
Precipitation  
Precipitation 0.00 in 0.03 in - ()
Sea Level Pressure  
Sea Level Pressure 29.49 in    
Wind  
Wind Speed 8 mph ()    
Max Wind Speed 16 mph    
Max Gust Speed -    
Visibility 6.2 miles    
Events Snow    
Averages and records for this station are not official NWS values.
T = Trace of Precipitation, MM = Missing Value Source: Averaged Metar Reports

Daily Weather History Graph

Daily Weather History Graph

Search for Another Location

Airport:

Trip Planner

Search our weather history database for the weather conditions in past years. The results will help you decide how hot, cold, wet, or windy it might be!

Date:

Astronomy

Feb. 06, 2013 Rise Set
Actual Time 7:29 AM CET 5:05 PM CET
Civil Twilight 6:54 AM CET 5:40 PM CET
Nautical Twilight 6:16 AM CET 6:18 PM CET
Astronomical Twilight 5:38 AM CET 6:56 PM CET
Moon 4:07 AM CET (2/6) 12:53 PM CET (2/6)
Length of Visible Light 10h 45m
Length of Day
9h 36m
Waning Crescent, 19% of the Moon is Illuminated
Feb 6
Waning Crescent
Feb 10
New
Feb 17
First Quarter
Feb 25
Full
Mar 4
Last Quarter

Hourly Weather History & Observations

Time (CET) Temp. Windchill Dew Point Humidity Pressure Visibility Wind Dir Wind Speed Gust Speed Precip Events Conditions
12:00 AM 32.0 °F 25.6 °F 28.4 °F 87% 29.50 in 6.2 mi SSW 6.9 mph - N/A   Scattered Clouds
12:30 AM 33.8 °F 26.4 °F 28.4 °F 81% 29.47 in 6.2 mi SW 9.2 mph - N/A   Mostly Cloudy
1:00 AM 32 °F - 27 °F 76% 29.55 in 25 mi SW 11.2 mph - -   Partly Cloudy
1:00 AM 32.0 °F 23.6 °F 26.6 °F 80% 29.47 in - SW 10.4 mph - N/A   Clear
1:30 AM 32.0 °F 24.8 °F 26.6 °F 80% 29.47 in - SW 8.1 mph - N/A   Clear
2:00 AM 32.0 °F 24.8 °F 26.6 °F 80% 29.47 in - SW 8.1 mph - N/A   Clear
2:30 AM 30.2 °F 21.9 °F 26.6 °F 86% 29.47 in 6.2 mi SW 9.2 mph - N/A   Partly Cloudy
3:00 AM 30.2 °F 23.4 °F 26.6 °F 86% 29.47 in 6.2 mi South 6.9 mph - N/A   Partly Cloudy
3:30 AM 32.0 °F 24.8 °F 26.6 °F 80% 29.44 in 6.2 mi South 8.1 mph - N/A   Partly Cloudy
4:00 AM 32.0 °F 25.6 °F 28.4 °F 87% 29.44 in 6.2 mi South 6.9 mph - N/A   Mostly Cloudy
4:14 AM 32.0 °F 24.2 °F 26.6 °F 80% 29.44 in 6.2 mi South 9.2 mph - N/A Snow Light Snow
4:30 AM 32.0 °F 24.8 °F 28.4 °F 87% 29.44 in 6.2 mi South 8.1 mph - N/A Snow Light Snow
5:00 AM 32.0 °F 23.0 °F 28.4 °F 87% 29.44 in 6.2 mi SSW 11.5 mph - N/A   Scattered Clouds
5:30 AM 32.0 °F 21.2 °F 26.6 °F 80% 29.44 in 6.2 mi SW 16.1 mph - N/A   Scattered Clouds
6:00 AM 32.0 °F 21.2 °F 26.6 °F 80% 29.47 in 6.2 mi WSW 16.1 mph - N/A   Partly Cloudy
6:30 AM 30.2 °F 20.8 °F 26.6 °F 86% 29.47 in 6.2 mi WSW 11.5 mph - N/A   Partly Cloudy
7:00 AM 30 °F - 25 °F 76% 29.55 in 25 mi WSW 11.2 mph - -   Partly Cloudy
7:00 AM 30.2 °F 20.2 °F 26.6 °F 86% 29.47 in 6.2 mi WSW 12.7 mph - N/A   Partly Cloudy
7:30 AM 28.4 °F 19.1 °F 24.8 °F 86% 29.47 in 6.2 mi WSW 10.4 mph - N/A   Partly Cloudy
8:00 AM 30.2 °F 20.2 °F 23.0 °F 75% 29.47 in - West 12.7 mph - N/A   Clear
8:30 AM 28.4 °F 18.5 °F 23.0 °F 80% 29.50 in - WSW 11.5 mph - N/A   Clear
9:00 AM 30.2 °F 22.6 °F 23.0 °F 75% 29.50 in - WSW 8.1 mph - N/A   Clear
9:30 AM 32.0 °F 24.2 °F 23.0 °F 69% 29.50 in - WSW 9.2 mph - N/A   Clear
10:00 AM 33.8 °F 27.0 °F 24.8 °F 70% 29.50 in 6.2 mi SW 8.1 mph - N/A   Partly Cloudy
10:30 AM 33.8 °F 26.4 °F 24.8 °F 70% 29.50 in 6.2 mi WSW 9.2 mph - N/A   Partly Cloudy
11:00 AM 35.6 °F 28.6 °F 24.8 °F 65% 29.50 in 6.2 mi WSW 9.2 mph - N/A   Partly Cloudy
11:30 AM 35.6 °F 28.6 °F 21.2 °F 56% 29.50 in 6.2 mi West 9.2 mph - N/A   Scattered Clouds
12:00 PM 35.6 °F 30.7 °F 21.2 °F 56% 29.50 in 6.2 mi West 5.8 mph - N/A   Scattered Clouds
12:30 PM 37.4 °F 32.8 °F 19.4 °F 48% 29.47 in 6.2 mi West 5.8 mph - N/A   Partly Cloudy
1:00 PM 34 °F - 21 °F 47% 29.54 in 47 mi West 8.9 mph - -   Partly Cloudy
1:00 PM 33.8 °F 24.8 °F 21.2 °F 60% 29.47 in 6.2 mi West 12.7 mph - N/A   Partly Cloudy
1:30 PM 37.4 °F 30.3 °F 21.2 °F 52% 29.47 in 6.2 mi WSW 10.4 mph - N/A   Partly Cloudy
2:00 PM 37.4 °F 32.1 °F 21.2 °F 52% 29.47 in 6.2 mi West 6.9 mph - N/A   Partly Cloudy
2:30 PM 35.6 °F 30.7 °F 21.2 °F 56% 29.47 in 6.2 mi WSW 5.8 mph - N/A   Scattered Clouds
3:00 PM 37.4 °F 31.4 °F 21.2 °F 52% 29.47 in 6.2 mi SW 8.1 mph - N/A   Scattered Clouds
3:30 PM 37.4 °F 32.1 °F 21.2 °F 52% 29.47 in 6.2 mi WSW 6.9 mph - N/A   Partly Cloudy
4:00 PM 35.6 °F 28.6 °F 21.2 °F 56% 29.47 in 6.2 mi WSW 9.2 mph - N/A   Partly Cloudy
4:30 PM 35.6 °F 30.7 °F 21.2 °F 56% 29.47 in - West 5.8 mph - N/A   Clear
5:00 PM 33.8 °F 29.6 °F 21.2 °F 60% 29.47 in - West 4.6 mph - N/A   Clear
5:30 PM 33.8 °F 29.6 °F 23.0 °F 65% 29.47 in - West 4.6 mph - N/A   Clear
6:00 PM 32.0 °F 28.7 °F 23.0 °F 69% 29.50 in - West 3.5 mph - N/A   Clear
6:30 PM 32.0 °F - 23.0 °F 69% 29.50 in - Variable 2.3 mph - N/A   Clear
7:00 PM 31 °F - 21 °F 54% 29.58 in 31 mi Calm Calm - -   Scattered Clouds
7:00 PM 32.0 °F - 21.2 °F 64% 29.50 in - Variable 1.2 mph - N/A   Clear
7:30 PM 32.0 °F - 21.2 °F 64% 29.50 in - Variable 1.2 mph - N/A   Clear
8:00 PM 30.2 °F - 23.0 °F 75% 29.53 in - Variable 1.2 mph - N/A   Clear
8:30 PM 32.0 °F - 21.2 °F 64% 29.53 in - East 1.2 mph - N/A   Clear
9:00 PM 30.2 °F - 23.0 °F 75% 29.53 in - Variable 1.2 mph - N/A   Clear
9:30 PM 28.4 °F 24.6 °F 23.0 °F 80% 29.53 in - SE 3.5 mph - N/A   Clear
10:00 PM 28.4 °F 24.6 °F 23.0 °F 80% 29.53 in - SSE 3.5 mph - N/A   Clear
10:30 PM 24.8 °F 20.5 °F 21.2 °F 86% 29.53 in - WSW 3.5 mph - N/A   Clear
11:00 PM 26.6 °F 22.6 °F 23.0 °F 86% 29.53 in - WSW 3.5 mph - N/A   Clear
11:30 PM 26.6 °F - 23.0 °F 86% 29.53 in 6.2 mi West 2.3 mph - N/A   Mostly Cloudy